EN

Hourly Weather Bolshoe Samarino

Today, 21 October, Wednesday

Time Temperature Precipitation Wind Pressure Humidity
00:00 0°C° 0 mm 4 mps 752 mmHg 84%
01:00 0°C° 0 mm 4 mps 752 mmHg 84%
02:00 -1°C° 0 mm 4 mps 753 mmHg 84%
03:00 -1°C° 0 mm 4 mps 753 mmHg 86%
04:00 -1°C° 0 mm 4 mps 753 mmHg 87%
05:00 -2°C° 0 mm 4 mps 754 mmHg 87%
06:00 -2°C° 0 mm 4 mps 754 mmHg 88%
07:00 -1°C° 0 mm 4 mps 754 mmHg 85%
08:00 -1°C° 0 mm 5 mps 754 mmHg 82%
09:00 -1°C° 0 mm 5 mps 755 mmHg 78%
10:00 0°C° 0 mm 4 mps 755 mmHg 73%
11:00 +1°C° 0 mm 4 mps 755 mmHg 68%
12:00 +3°C° 0 mm 4 mps 755 mmHg 63%
13:00 +3°C° 0 mm 4 mps 755 mmHg 62%
14:00 +3°C° 0 mm 4 mps 755 mmHg 61%
15:00 +3°C° 0 mm 5 mps 755 mmHg 61%
16:00 +3°C° 0 mm 4 mps 755 mmHg 68%
17:00 +1°C° 0 mm 4 mps 754 mmHg 76%
18:00 +1°C° 0 mm 4 mps 754 mmHg 84%
19:00 +1°C° 0.1 mm 3 mps 754 mmHg 87%
20:00 +1°C° 0.1 mm 3 mps 754 mmHg 91%
21:00 +2°C° 0.1 mm 2 mps 754 mmHg 94%
22:00 +3°C° 0.1 mm 2 mps 754 mmHg 94%
23:00 +3°C° 0.1 mm 2 mps 753 mmHg 94%

Tomorrow, 22 October, Thursday

Time Temperature Precipitation Wind Pressure Humidity
00:00 +3°C° 0.1 mm 2 mps 753 mmHg 93%
01:00 +3°C° 0 mm 2 mps 753 mmHg 93%
02:00 +3°C° 0 mm 2 mps 753 mmHg 92%
03:00 +4°C° 0 mm 2 mps 753 mmHg 91%
04:00 +3°C° 0 mm 3 mps 753 mmHg 91%
05:00 +3°C° 0 mm 3 mps 753 mmHg 91%
06:00 +3°C° 0 mm 3 mps 752 mmHg 91%
07:00 +3°C° 0 mm 3 mps 752 mmHg 90%
08:00 +4°C° 0 mm 3 mps 752 mmHg 88%
09:00 +4°C° 0 mm 3 mps 752 mmHg 87%
10:00 +5°C° 0 mm 3 mps 752 mmHg 83%
11:00 +5°C° 0 mm 4 mps 752 mmHg 80%
12:00 +6°C° 0 mm 4 mps 752 mmHg 76%
13:00 +7°C° 0 mm 4 mps 752 mmHg 76%
14:00 +7°C° 0 mm 4 mps 752 mmHg 76%
15:00 +7°C° 0 mm 4 mps 751 mmHg 75%
16:00 +7°C° 0 mm 4 mps 751 mmHg 77%
17:00 +7°C° 0 mm 4 mps 750 mmHg 79%
18:00 +6°C° 0 mm 4 mps 749 mmHg 80%
19:00 +6°C° 0.2 mm 4 mps 749 mmHg 82%
20:00 +7°C° 0.2 mm 5 mps 749 mmHg 84%
21:00 +7°C° 0.2 mm 5 mps 748 mmHg 85%
22:00 +7°C° 0.4 mm 5 mps 748 mmHg 85%
23:00 +7°C° 0.4 mm 5 mps 747 mmHg 86%

Day after tomorrow, 23 October, Friday

Time Temperature Precipitation Wind Pressure Humidity
00:00 +7°C° 0.4 mm 5 mps 746 mmHg 86%
01:00 +7°C° 0 mm 5 mps 746 mmHg 84%
02:00 +7°C° 0 mm 6 mps 746 mmHg 82%
03:00 +7°C° 0 mm 6 mps 745 mmHg 81%
04:00 +7°C° 0 mm 5 mps 745 mmHg 83%
05:00 +7°C° 0 mm 5 mps 745 mmHg 86%
06:00 +7°C° 0 mm 5 mps 745 mmHg 89%
07:00 +8°C° 0 mm 6 mps 745 mmHg 88%
08:00 +8°C° 0 mm 6 mps 745 mmHg 88%
09:00 +9°C° 0 mm 6 mps 745 mmHg 87%
10:00 +10°C° 0 mm 6 mps 745 mmHg 82%
11:00 +11°C° 0 mm 6 mps 745 mmHg 78%
12:00 +12°C° 0 mm 7 mps 746 mmHg 74%
13:00 +13°C° 0 mm 6 mps 746 mmHg 73%
14:00 +13°C° 0 mm 6 mps 746 mmHg 72%
15:00 +13°C° 0 mm 6 mps 746 mmHg 71%
16:00 +12°C° 0 mm 5 mps 745 mmHg 75%
17:00 +12°C° 0 mm 4 mps 745 mmHg 79%
18:00 +11°C° 0 mm 3 mps 745 mmHg 83%
19:00 +11°C° 0 mm 4 mps 745 mmHg 84%
20:00 +11°C° 0 mm 4 mps 744 mmHg 84%
21:00 +10°C° 0 mm 5 mps 744 mmHg 85%
22:00 +12°C° 0.2 mm 5 mps 743 mmHg 85%
23:00 +11°C° 0.2 mm 6 mps 743 mmHg 85%

24 October, Saturday

Time Temperature Precipitation Wind Pressure Humidity
00:00 +11°C° 0.2 mm 6 mps 742 mmHg 85%
01:00 +11°C° 0.5 mm 6 mps 742 mmHg 87%
02:00 +11°C° 0.5 mm 6 mps 742 mmHg 88%
03:00 +11°C° 0.5 mm 6 mps 742 mmHg 89%
04:00 +10°C° 0 mm 5 mps 743 mmHg 89%
05:00 +10°C° 0 mm 5 mps 743 mmHg 90%
06:00 +11°C° 0 mm 4 mps 743 mmHg 91%
07:00 +10°C° 0 mm 5 mps 743 mmHg 88%
08:00 +10°C° 0 mm 5 mps 743 mmHg 86%
09:00 +10°C° 0 mm 5 mps 744 mmHg 84%
10:00 +12°C° 0 mm 5 mps 744 mmHg 77%
11:00 +12°C° 0 mm 5 mps 744 mmHg 71%
12:00 +13°C° 0 mm 5 mps 745 mmHg 65%
13:00 +13°C° 0 mm 5 mps 745 mmHg 65%
14:00 +13°C° 0 mm 5 mps 745 mmHg 64%
15:00 +13°C° 0 mm 5 mps 745 mmHg 64%
16:00 +12°C° 0 mm 4 mps 745 mmHg 68%
17:00 +11°C° 0 mm 3 mps 745 mmHg 71%
18:00 +10°C° 0 mm 3 mps 746 mmHg 75%
19:00 +10°C° 0 mm 2 mps 746 mmHg 76%
20:00 +9°C° 0 mm 2 mps 746 mmHg 77%
21:00 +9°C° 0 mm 2 mps 746 mmHg 79%
22:00 +10°C° 0 mm 1 mps 746 mmHg 80%
23:00 +9°C° 0 mm 1 mps 746 mmHg 81%

25 October, Sunday

Time Temperature Precipitation Wind Pressure Humidity
00:00 +9°C° 0 mm 1 mps 746 mmHg 82%
01:00 +9°C° 0 mm 1 mps 746 mmHg 83%
02:00 +9°C° 0 mm 1 mps 746 mmHg 84%
03:00 +8°C° 0 mm 1 mps 746 mmHg 84%
04:00 +9°C° 0.1 mm 1 mps 746 mmHg 85%
05:00 +9°C° 0.1 mm 1 mps 746 mmHg 85%
06:00 +8°C° 0.1 mm 0 mps 745 mmHg 86%
07:00 +9°C° 0.6 mm 1 mps 745 mmHg 87%
08:00 +8°C° 0.6 mm 2 mps 745 mmHg 89%
09:00 +8°C° 0.6 mm 2 mps 745 mmHg 91%
10:00 +8°C° 1 mm 2 mps 745 mmHg 91%
11:00 +8°C° 1 mm 3 mps 746 mmHg 91%
12:00 +8°C° 1 mm 3 mps 746 mmHg 92%
13:00 +8°C° 0.8 mm 3 mps 746 mmHg 91%
14:00 +8°C° 0.8 mm 3 mps 746 mmHg 91%
15:00 +8°C° 0.8 mm 3 mps 747 mmHg 90%
16:00 +8°C° 0 mm 3 mps 747 mmHg 90%
17:00 +8°C° 0 mm 3 mps 748 mmHg 89%
18:00 +8°C° 0 mm 3 mps 748 mmHg 89%
19:00 +7°C° 0 mm 3 mps 749 mmHg 90%
20:00 +7°C° 0 mm 3 mps 750 mmHg 91%
21:00 +5°C° 0 mm 3 mps 750 mmHg 92%
22:00 +6°C° 0 mm 2 mps 751 mmHg 92%
23:00 +6°C° 0 mm 2 mps 751 mmHg 92%

26 October, Monday

Time Temperature Precipitation Wind Pressure Humidity
00:00 +5°C° 0 mm 2 mps 752 mmHg 91%
01:00 +5°C° 0 mm 2 mps 752 mmHg 92%
02:00 +5°C° 0 mm 2 mps 753 mmHg 92%
03:00 +5°C° 0 mm 2 mps 753 mmHg 92%
04:00 +5°C° 0 mm 2 mps 753 mmHg 92%
05:00 +4°C° 0 mm 2 mps 754 mmHg 92%
06:00 +4°C° 0 mm 2 mps 755 mmHg 93%
07:00 +5°C° 0 mm 2 mps 755 mmHg 91%
08:00 +5°C° 0 mm 2 mps 755 mmHg 89%
09:00 +7°C° 0 mm 1 mps 756 mmHg 87%
10:00 +8°C° 0 mm 1 mps 756 mmHg 80%
11:00 +9°C° 0 mm 1 mps 756 mmHg 73%
12:00 +10°C° 0 mm 1 mps 756 mmHg 66%
13:00 +11°C° 0 mm 1 mps 756 mmHg 63%
14:00 +11°C° 0 mm 1 mps 756 mmHg 61%
15:00 +11°C° 0 mm 1 mps 756 mmHg 59%
16:00 +9°C° 0 mm 0 mps 757 mmHg 64%
17:00 +8°C° 0 mm 0 mps 757 mmHg 69%
18:00 +7°C° 0 mm 0 mps 757 mmHg 73%
19:00 +7°C° 0 mm 0 mps 757 mmHg 75%
20:00 +8°C° 0 mm 1 mps 757 mmHg 76%
21:00 +7°C° 0 mm 1 mps 757 mmHg 78%
22:00 +7°C° 0 mm 1 mps 757 mmHg 78%
23:00 +7°C° 0 mm 1 mps 758 mmHg 79%

27 October, Tuesday

Time Temperature Precipitation Wind Pressure Humidity
00:00 +6°C° 0 mm 1 mps 758 mmHg 80%
01:00 +6°C° 0 mm 1 mps 758 mmHg 81%
02:00 +6°C° 0 mm 1 mps 758 mmHg 82%
03:00 +6°C° 0 mm 1 mps 758 mmHg 82%
04:00 +5°C° 0 mm 1 mps 758 mmHg 83%
05:00 +5°C° 0 mm 1 mps 758 mmHg 84%
06:00 +4°C° 0 mm 0 mps 759 mmHg 84%
07:00 +5°C° 0 mm 1 mps 759 mmHg 82%
08:00 +6°C° 0 mm 1 mps 759 mmHg 80%
09:00 +7°C° 0 mm 1 mps 759 mmHg 77%
10:00 +8°C° 0 mm 1 mps 759 mmHg 72%
11:00 +9°C° 0 mm 1 mps 759 mmHg 67%
12:00 +9°C° 0 mm 2 mps 759 mmHg 62%
13:00 +11°C° 0 mm 1 mps 759 mmHg 61%
14:00 +11°C° 0 mm 1 mps 759 mmHg 60%
15:00 +12°C° 0 mm 1 mps 759 mmHg 59%
16:00 +10°C° 0 mm 1 mps 759 mmHg 64%
17:00 +9°C° 0 mm 1 mps 759 mmHg 69%
18:00 +8°C° 0 mm 1 mps 759 mmHg 74%
19:00 +7°C° 0 mm 2 mps 759 mmHg 76%
20:00 +6°C° 0 mm 2 mps 759 mmHg 78%
21:00 +6°C° 0 mm 2 mps 759 mmHg 80%
22:00 +6°C° 0 mm 2 mps 759 mmHg 82%
23:00 +5°C° 0 mm 2 mps 759 mmHg 83%
Show more